Location: Hamburg
(53.5511°N, 9.9937°E)
Time: 15:51:20
(UTC+01:00)

ISS - Visible Passes

Search period start: 27 January 2022 00:00
Search period end: 06 February 2022 00:00
Orbit: 413 x 422 km, 51.6° (Epoch: 27 January)

Date Brightness Start Highest point End Pass type
(mag) Time Alt. Az. Time Alt. Az. Time Alt. Az.
27 Jan -3.1 17:28:34 10° WSW 17:31:48 49° SSE 17:35:03 10° E visible
27 Jan -3.6 19:05:05 10° W 19:08:24 61° S 19:08:30 60° S visible
28 Jan -3.5 18:17:02 10° W 18:20:21 63° S 18:22:26 21° ESE visible
28 Jan -1.4 19:53:45 10° W 19:55:22 23° WSW 19:55:22 23° WSW visible
29 Jan -3.2 19:05:39 10° W 19:08:53 47° SSW 19:09:19 44° S visible
30 Jan -3.3 18:17:33 10° W 18:20:50 55° S 18:23:18 16° ESE visible
30 Jan -1.3 19:54:29 10° W 19:56:14 20° SW 19:56:14 20° SW visible
31 Jan -2.2 19:06:13 10° W 19:09:13 30° SSW 19:10:18 24° S visible
01 Feb -2.5 18:18:02 10° W 18:21:11 39° SSW 18:24:19 10° SE visible
01 Feb -0.9 19:55:47 10° WSW 19:57:18 13° SW 19:57:23 13° SW visible
02 Feb -1.2 19:07:03 10° WSW 19:09:22 18° SW 19:11:39 10° S visible
03 Feb -1.5 18:18:37 10° W 18:21:22 24° SSW 18:24:07 10° SSE visible
05 Feb -0.7 18:19:43 10° WSW 18:21:21 13° SW 18:22:58 10° S visible
